Погода в Чите

Россия / Забайкальский край     52°02′02″N   113°29′57″E
темп.,
°C
ветер,
м/с
пор.,
м/с
влажн.,
%
обл.,
%
осадки,
мм/ч
давл.,
гПа
погр.,
м
12 мая, ср
ср1200:00+5зсз22524 0.0 100739
03:00+3з22660 0.0 100844
06:00+1з23770 0.0 101076
09:00+7з35470 0.0 1008730
12:00+13зсз47260 0.0 10052276
15:00+14зсз7726100 0.0 10032904
18:00+14з783472 0.0 10032395
21:00+9з385347 0.0 1005357
13 мая, чт
чт1300:00+6зсз410640 0.0 1007337
03:00+3з410570 0.0 1009478
06:000з38590 0.0 1011306
09:00+5зсз6934100 0.0 10091351
12:00+9з6925100 0.0 10072216
15:00+11з682078 0.0 10052875
18:00+11зсз6719100 0.0 10033078
21:00+7зсз5103190 0.0 1006677
14 мая, пт
пт1400:00+3сз374935 0.0 1008324
03:000з37612 0.0 1009245
06:000зюз1277100 0.0 1010161
09:00+4ссз367080 0.1 1010991
12:00+8ссз6743100 0.1 10101997
15:00+12с4927100 0.1 10073056
18:00+13с592098 0.0 10073172
21:00+8ссз22336 0.0 100940
15 мая, сб
сб1500:00+4сз11441 0.0 101216
03:00+2зюз11510 0.0 101410
06:00+1зюз22600 0.0 101521
09:00+8зюз25390 0.0 1014569
12:00+15зсз57200 0.0 10101871
15:00+18з68135 0.0 10072667
18:00+18зсз69175 0.0 10063102
21:00+13сз5123126 0.0 1007616
16 мая, вс
вс1600:00+9зсз613445 0.0 10101001
03:00+7з612445 0.0 1010997
06:00+5з613585 0.0 10111101
09:00+8зсз8135477 0.0 10111488
12:00+12зсз9134257 0.0 10101847
15:00+14з91445100 0.0 10092012
18:00+13зсз61755100 0.0 10082071
21:00+12зсз6156171 0.0 10081265